STARLINK-4485 (53541 NORAD) Tracking and Keplerian Element Data

This shows tracking and keplerian element data for the satellite.

Feedback or suggestion? Click here.




ElementValue
Catalog53541
NameSTARLINK-4485
Epoch Orbit1495
Epoch Day324.74382622
Epoch Year2022
RAAN83.3194
Inclination53.2199
Eccentricity0.0001858
Argument of Perigee52.231
Mean Anonmoly307.8851
Mean Motion15.08842695
Decay Rate1.857E-05
L11 53541U 22101Q 22324.74382622 .00001857 00000+0 13473-3 0 9992
L22 53541 53.2199 83.3194 0001858 52.2310 307.8851 15.08842695 14951



Live tracking and technical data element details for STARLINK-4485 (NORAD 53541). STARLINK-4485 can be tracked NOW for your location showing map with azimuth and elevation plus other details from your city location.







IsCatalogInMostPopularTable: catalog: 53541, numindb: 3
Update: records affected: 1



GetName: 53541 STARLINK-4485

Hit Count: updated at: Tue, 29 Nov 2022 01:48:09 GMT